User: anonymous   Login
Location: Cz?stochówka
(50.8142°N, 19.0915°E)
Time: 04:35:50
(UTC+00:00)
Language:

BREEZE-M DEB (TANK) - Orbit

View from above orbital plane
View from above orbital plane
View from above satellite
View from above satellite

Ground track
Ground track

The orbit is defined by the following mean orbital elements,

1 28477U          26070.42160413 +.00000000 +00000-0 +00000-0 0 00007
2 28477  47.4068 139.3525 7023667  92.6168 342.2989  2.23818966    02
Epoch (UTC): 11 March 2026 10:07:06
Eccentricity: 0.7023667
inclination: 47.4068°
perigee height: 970 km
apogee height: 35648 km
right ascension of ascending node: 139.3525°
argument of perigee: 92.6168°
revolutions per day: 2.23818966
mean anomaly at epoch: 342.2989°

The dashed part of the orbit path shows where the satellite is in the earth's shadow,  

DLR